This demonstration page uses our WeatherBlox Daily Observations layout. Learn more.

Left ArrowRight Arrow

Hourly Observations for November 25, 2015

Temp ( °F °C ) Dew Point ( °F °C ) Humidity (%) Winds ( mph kmh ) Pressure ( in mb ) Visibility ( mi km ) Precip ( " mm )
12:53 am 00:53 Clear 35 1.7 32 0 89 89 Calm 30.42 1030 10 16 0.00 0.00
1:53 am 01:53 Clear 34 1.1 31 -0.6 89 89 Calm 30.41 1030 10 16 0.00 0.00
2:53 am 02:53 Clear 35 1.7 31 -0.6 85 85 Calm 30.42 1030 10 16 0.00 0.00
3:53 am 03:53 Clear 32 0 29 -1.7 88 88 Calm 30.43 1030 10 16 0.00 0.00
4:53 am 04:53 Clear 32 0 29 -1.7 88 88 Calm 30.44 1031 10 16 0.00 0.00
5:53 am 05:53 Clear 32 0 29 -1.7 88 88 ENE 3 6 30.46 1032 10 16 0.00 0.00
6:53 am 06:53 Mostly Cloudy 36 2.2 31 -0.6 82 82 NNE 3 6 30.48 1032 10 16 0.00 0.00
7:53 am 07:53 Cloudy 38 3.3 33 0.6 83 83 NE 5 7 30.50 1033 10 16 0.00 0.00
8:53 am 08:53 Mostly Cloudy 43 6.1 33 0.6 68 68 NE 6 9 30.53 1034 10 16 0.00 0.00
9:53 am 09:53 Cloudy 48 8.9 35 1.7 61 61 VRB 6 9 30.54 1034 10 16 0.00 0.00
10:53 am 10:53 Cloudy 53 11.7 29 -1.7 40 40 E 13 20 30.55 1035 10 16 0.00 0.00
11:53 am 11:53 Cloudy 53 11.7 31 -0.6 43 43 E 10 17 30.55 1034 10 16 0.00 0.00
12:53 pm 12:53 Cloudy 55 12.8 32 0 42 42 E 9 15 30.52 1034 10 16 0.00 0.00
1:53 pm 13:53 Cloudy 57 13.9 31 -0.6 37 37 E 12 19 30.50 1033 10 16 0.00 0.00
2:53 pm 14:53 Mostly Cloudy 57 13.9 32 0 39 39 E 7 11 30.50 1033 10 16 0.00 0.00
3:53 pm 15:53 Mostly Cloudy 58 14.4 34 1.1 41 41 E 8 13 30.49 1033 10 16 0.00 0.00
4:53 pm 16:53 Sunny 57 13.9 35 1.7 44 44 E 9 15 30.50 1033 10 16 0.00 0.00
5:53 pm 17:53 Clear 55 12.8 35 1.7 47 47 E 7 11 30.51 1033 10 16 0.00 0.00
6:53 pm 18:53 Clear 54 12.2 36 2.2 51 51 E 7 11 30.53 1034 10 16 0.00 0.00
7:53 pm 19:53 Clear 53 11.7 36 2.2 52 52 E 8 13 30.54 1034 10 16 0.00 0.00
8:53 pm 20:53 Clear 52 11.1 35 1.7 53 53 ENE 9 15 30.55 1034 10 16 0.00 0.00
9:53 pm 21:53 Clear 50 10 36 2.2 59 59 ENE 7 11 30.56 1035 10 16 0.00 0.00
10:53 pm 22:53 Clear 50 10 36 2.2 59 59 NNE 5 7 30.57 1035 10 16 0.00 0.00
11:53 pm 23:53 Clear 48 8.9 35 1.7 61 61 ENE 3 6 30.58 1036 10 16 0.00 0.00

Powered by AerisWeather